CW8284 Weather Reports


Display with metric or nautical units.
time (UTC)temp
F
wind
direction
speed
MPH
gust
MPH
rain 1hr
in
rain 24hr
in
rain mn
in
humidity
%
barometer
mb
20260906231238 72 225 1.0 1.0 0.03 0.14 0.14 1011.7
20260906231138 72 225 1.0 1.0 0.03 0.14 0.14 1011.8
20260906231038 72 270 1.0 1.0 0.03 0.14 0.14 1011.5
20260906230938 72 157 0.0 0.0 0.03 0.14 0.14 1011.7
20260906230838 72 337 0.0 0.0 0.04 0.14 0.14 1011.6
20260906230438 72 292 2.0 2.0 0.04 0.14 0.14 1011.7
20260906230038 72 202 1.0 2.0 0.05 0.14 0.14 1011.6
20260906225938 72 247 1.0 1.0 0.04 0.14 0.14 1011.5
20260906225838 72 292 1.0 1.0 0.04 0.14 0.14 1011.6
20260906225738 72 270 1.0 2.0 0.04 0.14 0.14 1011.7
20260906224138 71 270 1.0 2.0 0.04 0.14 0.14 1011.8
20260906224038 71 292 1.0 2.0 0.04 0.14 0.14 1011.7
20260906223038 71 337 1.0 1.0 0.04 0.12 0.12 1011.8
20260906222638 70 315 1.0 2.0 0.04 0.12 0.12 1011.8
20260906222538 71 337 2.0 3.0 0.04 0.12 0.12 1012.0
20260906222438 71 315 1.0 2.0 0.04 0.12 0.12 1012.1
20260906222338 71 45 0.0 0.0 0.03 0.11 0.11 1012.1
20260906221938 70 315 1.0 2.0 0.03 0.11 0.11 1012.2
20260906221838 70 292 2.0 2.0 0.03 0.11 0.11 1012.1
20260906221438 70 315 2.0 3.0 0.03 0.11 0.11 1012.1
20260906221338 70 315 3.0 3.0 0.02 0.10 0.10 1012.1
20260906221238 70 315 3.0 4.0 0.02 0.10 0.10 1012.0
20260906221139 70 315 3.0 3.0 0.02 0.10 0.10 1012.2
20260906221038 70 315 3.0 3.0 0.02 0.10 0.10 1012.3
20260906220938 69 315 1.0 3.0 0.02 0.10 0.10 1012.4
20260906220838 70 337 0.0 0.0 0.02 0.10 0.10 1012.3
20260906220738 70 90 0.0 0.0 0.01 0.09 0.09 1012.4
20260906220638 70 90 0.0 0.0 0.01 0.09 0.09 1012.5
20260906220238 69 292 1.0 2.0 0.00 0.08 0.08 1012.5
20260906220138 69 0 1.0 2.0 0.00 0.08 0.08 1012.5
20260906215738 69 225 2.0 4.0 0.00 0.08 0.08 1013.0
20260906215638 69 225 3.0 4.0 0.00 0.08 0.08 1012.8
20260906214638 70 315 2.0 3.0 0.00 0.08 0.08 1012.1
20260906214238 69 45 2.0 2.0 0.00 0.08 0.08 1012.2
20260906214138 69 22 2.0 4.0 0.00 0.08 0.08 1012.1
20260906213738 69 0 2.0 2.0 0.00 0.07 0.07 1012.4
20260906212738 69 315 1.0 1.0 0.00 0.07 0.07 1012.8
20260906212338 69 247 0.0 0.0 0.00 0.07 0.07 1012.8
20260906212238 69 247 0.0 0.0 0.00 0.07 0.07 1012.8
20260906212138 69 247 0.0 0.0 0.00 0.07 0.07 1012.7
20260906212039 69 247 1.0 1.0 0.00 0.07 0.07 1012.6
20260906211038 69 157 0.0 0.0 0.00 0.07 0.07 1012.3
20260906210938 69 157 0.0 0.0 0.00 0.07 0.07 1012.4
20260906210538 69 45 0.0 0.0 0.00 0.07 0.07 1012.4
20260906210138 69 225 0.0 1.0 0.00 0.07 0.07 1012.4
20260906210038 69 67 1.0 4.0 0.00 0.07 0.07 1012.2
20260906205038 69 90 1.0 2.0 0.00 0.07 0.07 1012.2
20260906204938 69 112 1.0 2.0 0.00 0.07 0.07 1012.2
20260906204238 69 157 1.0 2.0 0.00 0.07 0.07 1012.2
20260906204138 69 90 1.0 2.0 0.00 0.07 0.07 1012.4
20260906203438 69 135 0.0 0.0 0.00 0.07 0.07 1012.5
20260906203338 69 135 1.0 2.0 0.00 0.07 0.07 1012.6
20260906203238 69 90 0.0 1.0 0.00 0.07 0.07 1012.6
20260906203138 69 67 0.0 1.0 0.00 0.07 0.07 1012.8
20260906202138 69 112 0.0 1.0 0.00 0.07 0.07 1012.9
20260906201738 69 67 2.0 3.0 0.00 0.07 0.07 1012.9
20260906201339 69 135 1.0 2.0 0.00 0.07 0.07 1012.9
20260906200338 69 157 1.0 2.0 0.00 0.07 0.07 1013.1
20260906195938 69 157 0.0 1.0 0.00 0.07 0.07 1013.7
20260906195838 69 0 1.0 2.0 0.00 0.07 0.07 1013.5
20260906195438 69 135 1.0 2.0 0.00 0.07 0.07 1013.5
20260906195338 69 202 1.0 1.0 0.00 0.07 0.07 1013.4
20260906195238 69 45 1.0 2.0 0.00 0.07 0.07 1013.5
20260906194538 69 90 0.0 0.0 0.01 0.07 0.07 1013.3
20260906193838 69 225 0.0 1.0 0.01 0.07 0.07 1013.3
20260906193738 69 90 0.0 0.0 0.01 0.07 0.07 1013.3
20260906193638 69 157 0.0 0.0 0.02 0.07 0.07 1013.3
20260906193538 71 0 0.0 1.0 0.02 0.07 0.07 1013.2
20260906193438 69 202 0.0 1.0 0.02 0.07 0.07 1013.2
20260906193338 69 157 0.0 0.0 0.02 0.07 0.07 1013.1
20260906192338 68 135 0.0 1.0 0.03 0.07 0.07 1013.4
20260906191638 67 45 0.0 0.0 0.03 0.07 0.07 1013.3
20260906191238 67 157 0.0 1.0 0.04 0.07 0.07 1013.5
20260906184138 65 112 0.0 1.0 0.04 0.04 0.04 1014.3
20260906184038 65 90 0.0 1.0 0.04 0.04 0.04 1014.3
20260906183938 65 112 0.0 1.0 0.04 0.04 0.04 1014.3
20260906183838 65 157 0.0 1.0 0.04 0.04 0.04 1014.4
20260906183438 65 157 0.0 0.0 0.03 0.03 0.03 1014.7
20260906183038 65 157 1.0 2.0 0.03 0.03 0.03 1014.4
20260906182638 65 112 0.0 0.0 0.03 0.03 0.03 1014.3
20260906182538 65 112 0.0 1.0 0.03 0.03 0.03 1014.2
20260906180638 67 180 0.0 2.0 0.01 0.01 0.01 1014.8
20260906180238 67 157 0.0 1.0 0.01 0.01 0.01 1014.8
20260906175838 67 90 0.0 1.0 0.00 0.00 0.00 1014.6
20260906175138 67 135 0.0 2.0 0.00 0.00 0.00 1014.5
20260906174438 67 45 1.0 2.0 0.00 0.00 0.00 1014.7
20260906174338 67 22 1.0 2.0 0.00 0.00 0.00 1014.5
20260906173638 68 135 0.0 0.0 0.00 0.00 0.00 1014.6
20260906173538 68 135 0.0 0.0 0.00 0.00 0.00 1014.6
20260906172538 68 180 0.0 0.0 0.00 0.00 0.00 1014.4
20260906171839 67 180 1.0 2.0 0.00 0.00 0.00 1014.1
20260906171438 67 45 0.0 0.0 0.00 0.00 0.00 1013.9
20260906171338 67 45 0.0 0.0 0.00 0.00 0.00 1014.0
20260906171238 67 45 0.0 0.0 0.00 0.00 0.00 1014.0
20260906171138 67 45 0.0 0.0 0.00 0.00 0.00 1014.0
20260906170438 66 67 0.0 1.0 0.00 0.00 0.00 1014.2
20260906165738 66 135 0.0 0.0 0.00 0.00 0.00 1014.0
20260906164738 65 202 1.0 2.0 0.00 0.00 0.00 1014.3
20260906164638 65 202 0.0 1.0 0.00 0.00 0.00 1014.2
20260906164538 65 292 2.0 3.0 0.00 0.00 0.00 1014.2
20260906163538 66 202 2.0 3.0 0.00 0.00 0.00 1014.3
20260906163438 66 225 3.0 4.0 0.00 0.00 0.00 1014.2
20260906163338 66 225 3.0 4.0 0.00 0.00 0.00 1014.1
20260906162638 66 202 2.0 4.0 0.00 0.00 0.00 1013.9
20260906160738 66 292 2.0 2.0 0.00 0.00 0.00 1013.6
20260906160338 66 315 1.0 2.0 0.00 0.00 0.00 1013.3
20260906160238 66 337 1.0 2.0 0.00 0.00 0.00 1013.5
20260906160138 66 337 1.0 2.0 0.00 0.00 0.00 1013.4
20260906160038 66 292 1.0 2.0 0.00 0.00 0.00 1013.3
20260906155938 66 315 1.0 1.0 0.00 0.00 0.00 1013.3
20260906155238 66 247 1.0 1.0 0.00 0.00 0.00 1013.0
20260906154239 66 225 1.0 2.0 0.00 0.00 0.00 1012.5
20260906154138 66 180 0.0 0.0 0.00 0.00 0.00 1012.6
20260906153738 66 135 0.0 0.0 0.00 0.00 0.00 1012.3
20260906153338 66 112 0.0 1.0 0.00 0.00 0.00 1011.9
20260906153238 66 112 0.0 0.0 0.00 0.00 0.00 1012.0
20260906153138 66 112 0.0 0.0 0.00 0.00 0.00 1012.0
20260906152439 65 180 0.0 1.0 0.00 0.00 0.00 1012.0
20260906151738 65 270 0.0 0.0 0.00 0.00 0.00 1011.8
20260906151038 65 315 2.0 3.0 0.00 0.00 0.00 1012.2
20260906150638 65 90 0.0 0.0 0.00 0.00 0.00 1012.1
20260906145940 64 45 2.0 3.0 0.00 0.00 0.00 1012.2
20260906145839 64 22 2.0 3.0 0.00 0.00 0.00 1012.2
20260906145438 64 337 1.0 2.0 0.00 0.00 0.00 1012.4
20260906145339 64 337 1.0 2.0 0.00 0.00 0.00 1012.3
20260906144038 64 112 2.0 2.0 0.00 0.00 0.00 1012.4
20260906143940 64 135 2.0 3.0 0.00 0.00 0.00 1012.4
20260906143838 64 135 1.0 2.0 0.00 0.00 0.00 1012.4
20260906143739 64 112 1.0 2.0 0.00 0.00 0.00 1012.2
20260906143339 64 112 1.0 2.0 0.00 0.00 0.00 1012.1
20260906143238 64 157 1.0 2.0 0.00 0.00 0.00 1012.3
20260906143140 64 135 1.0 2.0 0.00 0.00 0.00 1012.2
20260906141838 64 45 1.0 2.0 0.00 0.00 0.00 1011.9
20260906141738 64 22 0.0 1.0 0.00 0.00 0.00 1012.0
20260906141638 63 0 0.0 0.0 0.00 0.00 0.00 1012.0
20260906141538 64 90 0.0 1.0 0.00 0.00 0.00 1012.2
20260906141138 64 90 2.0 4.0 0.00 0.00 0.00 1012.2
20260906141038 64 67 2.0 4.0 0.00 0.00 0.00 1012.0
20260906140938 64 67 3.0 5.0 0.00 0.00 0.00 1012.0
20260906140838 64 45 3.0 5.0 0.00 0.00 0.00 1012.3
20260906140738 64 45 2.0 2.0 0.00 0.00 0.00 1012.3
20260906140638 64 45 0.0 1.0 0.00 0.00 0.00 1012.4
20260906140238 64 45 0.0 0.0 0.00 0.00 0.00 1012.4
20260906140138 64 112 0.0 0.0 0.00 0.00 0.00 1012.5
20260906135738 64 45 0.0 1.0 0.00 0.00 0.00 1012.4
20260906135338 64 45 0.0 1.0 0.00 0.00 0.00 1012.6
20260906134938 64 67 0.0 0.0 0.00 0.00 0.00 1012.5
20260906134838 64 67 0.0 0.0 0.00 0.00 0.00 1012.6
20260906134438 64 337 0.0 0.0 0.00 0.00 0.00 1012.4
20260906133738 64 45 3.0 3.0 0.00 0.00 0.00 1012.3
20260906133338 64 315 1.0 1.0 0.00 0.00 0.00 1012.5
20260906132638 64 292 2.0 3.0 0.00 0.00 0.00 1012.2
20260906131338 64 202 0.0 0.0 0.00 0.00 0.00 1012.4
20260906130638 64 270 0.0 0.0 0.00 0.00 0.00 1012.4
20260906130238 64 292 0.0 1.0 0.00 0.00 0.00 1012.5
20260906124338 67 292 4.0 6.0 0.00 0.00 0.00 1012.2
20260906122138 69 135 0.0 0.0 0.00 0.00 0.00 1011.2
20260906122038 69 135 0.0 0.0 0.00 0.00 0.00 1011.1
20260906121638 69 337 1.0 2.0 0.00 0.00 0.00 1010.7
20260906121538 70 315 1.0 2.0 0.00 0.00 0.00 1010.8
20260906121438 70 315 0.0 0.0 0.00 0.00 0.00 1010.8
20260906121338 70 337 0.0 0.0 0.00 0.00 0.00 1010.8
20260906120938 71 202 0.0 0.0 0.00 0.00 0.00 1011.0
20260906120838 71 180 0.0 0.0 0.00 0.00 0.00 1010.8
20260906120438 71 202 0.0 0.0 0.00 0.00 0.00 1010.6
20260906120338 70 225 0.0 0.0 0.00 0.00 0.00 1010.6
20260906115938 70 270 0.0 0.0 0.00 0.00 0.00 1010.6
20260906114638 69 247 0.0 0.0 0.00 0.00 0.00 1010.6
20260906114238 69 202 0.0 0.0 0.00 0.00 0.00 1010.8
20260906113838 70 225 0.0 0.0 0.00 0.00 0.00 1010.8
20260906113438 70 202 0.0 0.0 0.00 0.00 0.00 1010.6
20260906113038 70 292 0.0 0.0 0.00 0.00 0.00 1010.3
20260906112938 70 315 0.0 0.0 0.00 0.00 0.00 1010.5
20260906112838 70 315 0.0 0.0 0.00 0.00 0.00 1010.6
20260906112738 70 292 0.0 0.0 0.00 0.00 0.00 1010.5
20260906112638 70 292 0.0 0.0 0.00 0.00 0.00 1010.6
20260906112539 70 292 0.0 0.0 0.00 0.00 0.00 1010.6
20260906112438 70 202 0.0 0.0 0.00 0.00 0.00 1010.6
20260906111438 70 202 0.0 0.0 0.00 0.00 0.00 1010.7
20260906110738 71 315 0.0 0.0 0.00 0.00 0.00 1010.7
20260906110038 71 270 0.0 0.0 0.00 0.00 0.00 1010.8
20260906103838 71 180 0.0 0.0 0.00 0.00 0.00 1010.8
20260906103138 71 157 0.0 0.0 0.00 0.00 0.00 1010.7
20260906103038 71 157 0.0 0.0 0.00 0.00 0.00 1010.7
20260906102638 71 157 0.0 0.0 0.00 0.00 0.00 1010.8
20260906102538 71 157 0.0 0.0 0.00 0.00 0.00 1010.8
20260906102138 71 292 0.0 0.0 0.00 0.00 0.00 1010.7
20260906102038 71 292 0.0 0.0 0.00 0.00 0.00 1010.7
20260906101638 71 315 0.0 0.0 0.00 0.00 0.00 1010.9
20260906100338 70 315 0.0 0.0 0.00 0.00 0.00 1010.8
20260906095938 70 180 0.0 0.0 0.00 0.00 0.00 1010.6
20260906095838 70 135 0.0 0.0 0.00 0.00 0.00 1010.8
20260906095738 70 135 0.0 0.0 0.00 0.00 0.00 1010.8
20260906095638 70 135 0.0 0.0 0.00 0.00 0.00 1010.6
20260906095238 70 157 0.0 0.0 0.00 0.00 0.00 1010.6
20260906094838 70 202 0.0 0.0 0.00 0.00 0.00 1010.4
20260906094738 69 202 0.0 0.0 0.00 0.00 0.00 1010.8
20260906093738 69 202 0.0 0.0 0.00 0.00 0.00 1010.7
20260906093338 70 292 0.0 0.0 0.00 0.00 0.00 1010.5
20260906093238 69 270 0.0 0.0 0.00 0.00 0.00 1010.6
20260906093138 69 292 0.0 0.0 0.00 0.00 0.00 1010.7
20260906093038 70 292 0.0 0.0 0.00 0.00 0.00 1010.7
20260906092338 69 315 0.0 0.0 0.00 0.00 0.00 1010.5
20260906091638 69 315 0.0 0.0 0.00 0.00 0.00 1010.8
20260906091538 69 292 0.0 0.0 0.00 0.00 0.00 1010.8
20260906090238 68 315 0.0 0.0 0.00 0.00 0.00 1010.9
20260906085538 68 270 0.0 0.0 0.00 0.00 0.00 1010.9
20260906084838 68 157 0.0 0.0 0.00 0.00 0.00 1010.9
20260906084738 68 157 0.0 0.0 0.00 0.00 0.00 1010.9
20260906084338 68 157 0.0 0.0 0.00 0.00 0.00 1010.9
20260906084238 68 157 0.0 0.0 0.00 0.00 0.00 1011.0
20260906084138 68 157 0.0 0.0 0.00 0.00 0.00 1011.0
20260906083738 68 157 0.0 0.0 0.00 0.00 0.00 1010.9
20260906083338 68 157 0.0 0.0 0.00 0.00 0.00 1010.9
20260906082338 68 157 0.0 0.0 0.00 0.00 0.00 1011.0
20260906081338 68 292 0.0 0.0 0.00 0.00 0.00 1011.1
20260906080638 68 270 0.0 0.0 0.00 0.00 0.00 1011.1
20260906080538 68 315 0.0 0.0 0.00 0.00 0.00 1011.2
20260906080138 68 337 0.0 0.0 0.00 0.00 0.00 1011.1
20260906080038 68 0 0.0 0.0 0.00 0.00 0.00 1011.2
20260906075938 68 315 0.0 0.0 0.00 0.00 0.00 1011.3
20260906075538 68 315 0.0 0.0 0.00 0.00 0.00 1011.1
20260906073638 66 202 0.0 0.0 0.00 0.00 0.00 1011.3
20260906073538 66 202 0.0 0.0 0.00 0.00 0.00 1011.1
20260906073438 66 202 0.0 0.0 0.00 0.00 0.00 1011.0
20260906072438 66 292 0.0 0.0 0.00 0.00 0.00 1011.1
20260906072338 66 292 0.0 0.0 0.00 0.00 0.00 1011.0
20260906072238 67 292 0.0 0.0 0.00 0.00 0.00 1011.2
20260906072138 67 292 0.0 0.0 0.00 0.00 0.00 1011.0
20260906072038 67 292 0.0 0.0 0.00 0.00 0.00 1011.2
20260906071938 67 292 0.0 0.0 0.00 0.00 0.00 1011.1
20260906071838 67 292 0.0 0.0 0.00 0.00 0.00 1011.1
20260906071738 67 315 0.0 0.0 0.00 0.00 0.00 1011.1
20260906071638 67 315 0.0 0.0 0.00 0.00 0.00 1011.1
20260906071538 67 315 0.0 0.0 0.00 0.00 0.00 1011.0
20260906071438 67 315 0.0 0.0 0.00 0.00 0.00 1011.0
20260906071338 67 315 0.0 0.0 0.00 0.00 0.00 1011.0
20260906070039 67 22 0.0 0.0 0.00 0.00 0.00 1011.0
20260906065938 67 90 0.0 0.0 0.00 0.00 0.00 1010.9
20260906065838 67 90 0.0 0.0 0.00 0.00 0.00 1011.0
20260906065738 67 90 0.0 0.0 0.00 0.00 0.00 1010.9
20260906065338 67 90 0.0 0.0 0.00 0.00 0.00 1011.2
20260906064938 67 67 0.0 0.0 0.00 0.00 0.00 1011.0
20260906063638 67 337 0.0 0.0 0.00 0.00 0.00 1011.0
20260906063538 67 337 0.0 0.0 0.00 0.00 0.00 1011.1
20260906062838 68 292 0.0 0.0 0.00 0.00 0.00 1011.0
20260906062738 68 292 0.0 0.0 0.00 0.00 0.00 1011.0
20260906062638 68 292 0.0 0.0 0.00 0.00 0.00 1011.1
20260906062538 68 292 0.0 0.0 0.00 0.00 0.00 1011.1
20260906062138 68 225 0.0 0.0 0.00 0.00 0.00 1011.0
20260906060838 68 225 0.0 0.0 0.00 0.00 0.00 1011.2
20260906060138 68 247 0.0 0.0 0.00 0.00 0.00 1011.1
20260906055738 68 247 0.0 0.0 0.00 0.00 0.00 1011.0
20260906055338 68 247 0.0 0.0 0.00 0.00 0.00 1011.3
20260906054938 68 292 0.0 0.0 0.00 0.00 0.00 1011.1
20260906054538 68 0 0.0 0.0 0.00 0.00 0.00 1011.2
20260906053238 69 180 0.0 0.0 0.00 0.00 0.00 1011.3
20260906053138 69 292 0.0 0.0 0.00 0.00 0.00 1011.1
20260906052738 69 67 0.0 0.0 0.00 0.00 0.00 1011.2
20260906051438 69 67 0.0 0.0 0.00 0.00 0.00 1011.2
20260906051338 69 45 0.0 0.0 0.00 0.00 0.00 1011.2
20260906050938 70 45 0.0 0.0 0.00 0.00 0.00 1011.1
20260906050838 70 45 0.0 0.0 0.00 0.00 0.00 1011.1
20260906050438 70 45 0.0 0.0 0.00 0.00 0.00 1011.1
20260906050339 70 45 0.0 0.0 0.00 0.00 0.00 1011.1
20260906044738 70 202 0.0 0.0 0.00 0.00 0.00 1011.2
20260906044638 70 202 0.0 0.0 0.00 0.00 0.00 1011.1
20260906044538 71 202 0.0 0.0 0.00 0.00 0.00 1011.4
20260906043538 71 202 0.0 0.0 0.00 0.00 0.00 1011.3
20260906043438 71 202 0.0 0.0 0.00 0.00 0.00 1011.3
20260906043038 72 225 0.0 0.0 0.00 0.00 0.00 1011.3
20260906040238 74 135 0.0 0.0 0.00 0.00 0.00 1011.0
20260906040138 74 135 0.0 0.0 0.00 0.00 0.00 1011.0
20260906040039 74 135 0.0 0.0 0.00 0.00 0.00 1011.0
20260906035338 75 225 0.0 0.0 0.00 0.00 0.00 1011.0
20260906035238 75 180 1.0 1.0 0.00 0.00 0.00 1010.9
20260906035138 75 247 0.0 0.0 0.00 0.00 0.00 1010.9
20260906035038 75 202 0.0 0.0 0.00 0.00 0.00 1010.9
20260906034638 75 202 0.0 0.0 0.00 0.00 0.00 1010.9
20260906034538 75 180 0.0 1.0 0.00 0.00 0.00 1011.0
20260906034438 75 180 0.0 0.0 0.00 0.00 0.00 1010.9
20260906034338 75 202 1.0 2.0 0.00 0.00 0.00 1010.9
20260906034238 75 202 0.0 0.0 0.00 0.00 0.00 1010.8
20260906033838 75 112 0.0 0.0 0.00 0.00 0.00 1010.9
20260906033438 75 112 0.0 0.0 0.00 0.00 0.00 1010.9
20260906033338 76 202 1.0 2.0 0.00 0.00 0.00 1010.9
20260906033238 76 247 1.0 3.0 0.00 0.00 0.00 1010.9
20260906032838 76 157 0.0 0.0 0.00 0.00 0.00 1010.7
20260906032738 76 157 0.0 0.0 0.00 0.00 0.00 1010.9
20260906032638 76 157 0.0 0.0 0.00 0.00 0.00 1010.7
20260906032538 77 247 0.0 0.0 0.00 0.00 0.00 1010.7
20260906032138 77 157 0.0 0.0 0.00 0.00 0.00 1010.8
20260906031738 77 157 0.0 0.0 0.00 0.00 0.00 1010.8
20260906031338 78 225 0.0 0.0 0.00 0.00 0.00 1010.8
20260906030938 78 180 0.0 0.0 0.00 0.00 0.00 1010.6
20260906030238 78 225 0.0 1.0 0.00 0.00 0.00 1010.6
20260906030138 78 225 0.0 0.0 0.00 0.00 0.00 1010.8
20260906030039 78 202 0.0 0.0 0.00 0.00 0.00 1010.4
20260906025638 79 202 0.0 0.0 0.00 0.00 0.00 1010.5
20260906025238 79 202 1.0 2.0 0.00 0.00 0.00 1010.8
20260906024838 79 225 2.0 3.0 0.00 0.00 0.00 1010.5
20260906024738 79 225 1.0 2.0 0.00 0.00 0.00 1010.5
20260906024638 80 225 1.0 2.0 0.00 0.00 0.00 1010.6
20260906024538 80 225 1.0 2.0 0.00 0.00 0.00 1010.5
20260906024138 80 225 0.0 2.0 0.00 0.00 0.00 1010.5
20260906022838 81 180 1.0 3.0 0.00 0.00 0.00 1010.6
20260906022438 81 180 2.0 4.0 0.00 0.00 0.00 1010.5
20260906022338 81 225 3.0 4.0 0.00 0.00 0.00 1010.4
20260906021938 81 202 2.0 3.0 0.00 0.00 0.00 1010.4
20260906021538 81 225 2.0 5.0 0.00 0.00 0.00 1010.4
20260906020838 82 225 2.0 4.0 0.00 0.00 0.00 1010.3
20260906020738 82 225 1.0 2.0 0.00 0.00 0.00 1010.5
20260906020338 82 225 3.0 4.0 0.00 0.00 0.00 1010.5
20260906020238 82 202 0.0 1.0 0.00 0.00 0.00 1010.4
20260906020138 82 157 0.0 1.0 0.00 0.00 0.00 1010.4
20260906020038 82 180 2.0 5.0 0.00 0.00 0.00 1010.4
20260906015938 82 225 1.0 3.0 0.00 0.00 0.00 1010.3
20260906015838 82 225 3.0 4.0 0.00 0.00 0.00 1010.2
20260906015738 83 202 2.0 3.0 0.00 0.00 0.00 1010.2
20260906015638 83 247 0.0 2.0 0.00 0.00 0.00 1010.4
20260906013738 84 225 2.0 4.0 0.00 0.00 0.00 1010.3
20260906013638 84 225 3.0 4.0 0.00 0.00 0.00 1010.3
20260906012638 86 202 1.0 3.0 0.00 0.00 0.00 1010.1
20260906012538 86 135 2.0 4.0 0.00 0.00 0.00 1010.0
20260906012438 86 247 1.0 2.0 0.00 0.00 0.00 1010.0
20260906012338 86 202 3.0 5.0 0.00 0.00 0.00 1010.1
20260906010138 87 180 2.0 4.0 0.00 0.00 0.00 1010.1
20260906005438 87 202 1.0 3.0 0.00 0.00 0.00 1010.3
20260906005038 87 202 1.0 3.0 0.00 0.00 0.00 1009.9
20260906004638 88 202 1.0 3.0 0.00 0.00 0.00 1010.1
20260906004538 88 180 1.0 2.0 0.00 0.00 0.00 1010.0
20260906004438 88 202 2.0 3.0 0.00 0.00 0.00 1009.9
20260906004038 88 112 0.0 1.0 0.00 0.00 0.00 1010.1
20260906003938 88 202 1.0 2.0 0.00 0.00 0.00 1010.2
20260906003538 88 67 1.0 2.0 0.00 0.00 0.00 1010.2
20260906003438 88 180 1.0 2.0 0.00 0.00 0.00 1010.1
20260906003038 88 157 0.0 2.0 0.00 0.00 0.00 1010.2
20260906002639 88 180 1.0 2.0 0.00 0.00 0.00 1010.1
20260906001938 88 270 0.0 1.0 0.00 0.00 0.00 1010.1
20260906001838 88 157 1.0 2.0 0.00 0.00 0.00 1010.1
20260906001738 88 202 1.0 3.0 0.00 0.00 0.00 1010.1
20260906001638 88 315 1.0 2.0 0.00 0.00 0.00 1010.1
20260906001538 88 112 1.0 2.0 0.00 0.00 0.00 1010.1
20260906001438 88 247 2.0 5.0 0.00 0.00 0.00 1010.1
20260906001338 89 247 2.0 4.0 0.00 0.00 0.00 1010.1
20260906001238 89 157 2.0 3.0 0.00 0.00 0.00 1010.1
20260906000838 89 157 1.0 2.0 0.00 0.00 0.00 1010.2
20260905235838 89 315 2.0 3.0 0.00 0.00 0.00 1010.2
20260905234538 90 157 1.0 2.0 0.00 0.00 0.00 1009.9
20260905234438 89 157 2.0 4.0 0.00 0.00 0.00 1009.9
20260905234038 89 180 0.0 1.0 0.00 0.00 0.00 1010.1
20260905233938 89 315 1.0 2.0 0.00 0.00 0.00 1009.9
20260905233538 90 202 1.0 3.0 0.00 0.00 0.00 1010.3